Time,TemperatureF,DewpointF,PressureIn,WindDirection,WindDirectionDegrees,WindSpeedMPH,WindSpeedGustMPH,Humidity,HourlyPrecipIn,Conditions,Clouds,dailyrainin,SolarRadiationWatts/m^2,SoftwareType,DateUTC
2013-08-25 00:02:00,78.2,71.5,30.03,SE,126,5.8,5.8,80,0.00,CLR,,0.00,0.0,WeatherDisplay:10.37,2013-08-25 05:02:00,
2013-08-25 00:07:00,78.0,71.3,30.03,SE,142,1.2,1.2,80,0.00,CLR,,0.00,0.0,WeatherDisplay:10.37,2013-08-25 05:07:00,
2013-08-25 00:12:00,78.0,71.7,30.03,SE,136,3.5,3.5,81,0.00,CLR,,0.00,0.0,WeatherDisplay:10.37,2013-08-25 05:12:00,
2013-08-25 00:17:00,77.8,71.5,30.03,ESE,103,2.3,2.3,81,0.00,CLR,,0.00,0.0,WeatherDisplay:10.37,2013-08-25 05:17:00,
2013-08-25 00:22:00,77.8,71.5,30.03,SE,146,5.8,5.8,81,0.00,CLR,,0.00,0.0,WeatherDisplay:10.37,2013-08-25 05:22:00,
2013-08-25 00:27:00,77.7,71.4,30.03,SE,133,1.2,1.2,81,0.00,CLR,,0.00,0.0,WeatherDisplay:10.37,2013-08-25 05:27:00,
2013-08-25 00:32:00,77.6,71.3,30.03,SE,133,2.3,2.3,81,0.00,CLR,,0.00,0.0,WeatherDisplay:10.37,2013-08-25 05:32:00,
2013-08-25 00:37:00,77.5,71.6,30.03,SSE,153,2.3,2.3,82,0.00,CLR,,0.00,0.0,WeatherDisplay:10.37,2013-08-25 05:37:00,
2013-08-25 00:42:00,77.4,71.5,30.03,SE,130,6.9,6.9,82,0.00,CLR,,0.00,0.0,WeatherDisplay:10.37,2013-08-25 05:42:00,
2013-08-25 00:47:00,77.3,71.4,30.03,SE,130,3.5,3.5,82,0.00,CLR,,0.00,0.0,WeatherDisplay:10.37,2013-08-25 05:47:00,
2013-08-25 00:52:00,77.2,71.3,30.04,SE,137,2.3,2.3,82,0.00,CLR,,0.00,0.0,WeatherDisplay:10.37,2013-08-25 05:52:00,
2013-08-25 00:57:00,77.1,71.2,30.04,ESE,113,2.3,2.3,82,0.00,CLR,,0.00,0.0,WeatherDisplay:10.37,2013-08-25 05:57:00,
2013-08-25 01:02:00,77.0,71.4,30.04,SE,127,3.5,3.5,83,0.00,CLR,,0.00,0.0,WeatherDisplay:10.37,2013-08-25 06:02:00,
2013-08-25 01:07:00,76.9,71.3,30.04,ENE,78,1.2,1.2,83,0.00,CLR,,0.00,0.0,WeatherDisplay:10.37,2013-08-25 06:07:00,
2013-08-25 01:12:00,76.7,71.1,30.04,ESE,115,3.5,3.5,83,0.00,CLR,,0.00,0.0,WeatherDisplay:10.37,2013-08-25 06:12:00,
2013-08-25 01:17:00,76.6,71.4,30.04,SE,146,3.5,3.5,84,0.00,CLR,,0.00,0.0,WeatherDisplay:10.37,2013-08-25 06:17:00,
2013-08-25 01:22:00,76.4,71.2,30.04,SSE,148,1.2,1.2,84,0.00,CLR,,0.00,0.0,WeatherDisplay:10.37,2013-08-25 06:22:00,
2013-08-25 01:27:00,76.4,71.2,30.04,SE,131,1.2,1.2,84,0.00,CLR,,0.00,0.0,WeatherDisplay:10.37,2013-08-25 06:27:00,
2013-08-25 01:32:00,76.2,71.0,30.04,SE,124,2.3,2.3,84,0.00,CLR,,0.00,0.0,WeatherDisplay:10.37,2013-08-25 06:32:00,
2013-08-25 01:37:00,76.2,71.0,30.04,SE,141,3.5,3.5,84,0.00,CLR,,0.00,0.0,WeatherDisplay:10.37,2013-08-25 06:37:00,
2013-08-25 01:42:00,76.1,70.9,30.04,SE,138,5.8,5.8,84,0.00,CLR,,0.00,0.0,WeatherDisplay:10.37,2013-08-25 06:42:00,
2013-08-25 01:47:00,76.0,71.2,30.04,SE,128,1.2,1.2,85,0.00,CLR,,0.00,0.0,WeatherDisplay:10.37,2013-08-25 06:47:00,
2013-08-25 01:52:00,75.9,71.1,30.04,South,174,2.3,2.3,85,0.00,CLR,,0.00,0.0,WeatherDisplay:10.37,2013-08-25 06:52:00,
2013-08-25 01:57:00,75.8,71.0,30.04,SSE,148,3.5,3.5,85,0.00,CLR,,0.00,0.0,WeatherDisplay:10.37,2013-08-25 06:57:00,
2013-08-25 02:02:00,75.7,70.9,30.04,South,182,3.5,3.5,85,0.00,CLR,,0.00,0.0,WeatherDisplay:10.37,2013-08-25 07:02:00,
2013-08-25 02:07:00,75.6,71.1,30.05,SSE,149,2.0,2.0,86,0.00,CLR,,0.00,0.0,WeatherDisplay:10.37,2013-08-25 07:07:00,
2013-08-25 02:12:00,75.5,71.0,30.05,SE,140,4.0,4.0,86,0.00,CLR,,0.00,0.0,WeatherDisplay:10.37,2013-08-25 07:12:00,
2013-08-25 02:17:00,75.3,70.8,30.05,SE,144,1.2,1.2,86,0.00,CLR,,0.00,0.0,WeatherDisplay:10.37,2013-08-25 07:17:00,
2013-08-25 02:22:00,75.2,70.7,30.05,SSE,165,3.5,3.5,86,0.00,CLR,,0.00,0.0,WeatherDisplay:10.37,2013-08-25 07:22:00,
2013-08-25 02:27:00,75.1,70.6,30.05,SSW,209,2.3,2.3,86,0.00,CLR,,0.00,0.0,WeatherDisplay:10.37,2013-08-25 07:27:00,
2013-08-25 02:32:00,75.0,70.9,30.05,SE,137,2.3,2.3,87,0.00,CLR,,0.00,0.0,WeatherDisplay:10.37,2013-08-25 07:32:00,
2013-08-25 02:37:00,74.9,70.8,30.05,SSE,161,3.5,3.5,87,0.00,CLR,,0.00,0.0,WeatherDisplay:10.37,2013-08-25 07:37:00,
2013-08-25 02:42:00,74.8,70.7,30.05,SE,137,3.5,3.5,87,0.00,CLR,,0.00,0.0,WeatherDisplay:10.37,2013-08-25 07:42:00,
2013-08-25 02:47:00,74.7,70.6,30.05,ESE,123,0.0,0.0,87,0.00,CLR,,0.00,0.0,WeatherDisplay:10.37,2013-08-25 07:47:00,
2013-08-25 02:52:00,74.6,70.5,30.05,SSE,157,0.0,0.0,87,0.00,CLR,,0.00,0.0,WeatherDisplay:10.37,2013-08-25 07:52:00,
2013-08-25 02:57:00,74.4,70.3,30.05,SSE,165,0.0,0.0,87,0.00,CLR,,0.00,0.0,WeatherDisplay:10.37,2013-08-25 07:57:00,
2013-08-25 03:02:00,74.3,70.5,30.05,SSE,163,0.0,0.0,88,0.00,CLR,,0.00,0.0,WeatherDisplay:10.37,2013-08-25 08:02:00,
2013-08-25 03:07:00,74.2,70.4,30.05,SE,134,2.0,2.0,88,0.00,CLR,,0.00,0.0,WeatherDisplay:10.37,2013-08-25 08:07:00,
2013-08-25 03:12:00,74.0,70.2,30.05,SE,134,0.0,0.0,88,0.00,CLR,,0.00,0.0,WeatherDisplay:10.37,2013-08-25 08:12:00,
2013-08-25 03:17:00,73.9,70.1,30.05,SSE,154,3.5,3.5,88,0.00,CLR,,0.00,0.0,WeatherDisplay:10.37,2013-08-25 08:17:00,
2013-08-25 03:22:00,73.8,70.4,30.05,SSE,153,1.2,1.2,89,0.00,CLR,,0.00,0.0,WeatherDisplay:10.37,2013-08-25 08:22:00,
2013-08-25 03:27:00,73.7,70.3,30.05,SSE,153,1.2,1.2,89,0.00,CLR,,0.00,0.0,WeatherDisplay:10.37,2013-08-25 08:27:00,
2013-08-25 03:32:00,73.6,70.2,30.05,South,186,1.2,1.2,89,0.00,CLR,,0.00,0.0,WeatherDisplay:10.37,2013-08-25 08:32:00,
2013-08-25 03:37:00,73.5,70.1,30.05,South,172,2.3,0.0,89,0.00,CLR,,0.00,0.0,WeatherDisplay:10.37,2013-08-25 08:37:00,
2013-08-25 03:42:00,73.4,70.0,30.05,SSE,163,2.3,2.3,89,0.00,CLR,,0.00,0.0,WeatherDisplay:10.37,2013-08-25 08:42:00,
2013-08-25 03:47:00,73.3,70.2,30.06,SE,142,1.2,1.2,90,0.00,CLR,,0.00,0.0,WeatherDisplay:10.37,2013-08-25 08:47:00,
2013-08-25 03:52:00,73.3,70.2,30.05,SSE,167,2.3,2.3,90,0.00,CLR,,0.00,0.0,WeatherDisplay:10.37,2013-08-25 08:52:00,
2013-08-25 03:57:00,73.2,69.8,30.05,SE,144,3.5,3.5,89,0.00,CLR,,0.00,0.0,WeatherDisplay:10.37,2013-08-25 08:57:00,
2013-08-25 04:02:00,73.2,70.1,30.05,SSE,154,1.2,1.2,90,0.00,CLR,,0.00,0.0,WeatherDisplay:10.37,2013-08-25 09:02:00,
2013-08-25 04:07:00,73.2,70.1,30.05,SE,145,2.0,2.0,90,0.00,CLR,,0.00,0.0,WeatherDisplay:10.37,2013-08-25 09:07:00,
2013-08-25 04:12:00,73.1,70.0,30.06,SE,136,3.0,3.0,90,0.00,CLR,,0.00,0.0,WeatherDisplay:10.37,2013-08-25 09:12:00,
2013-08-25 04:17:00,73.1,70.0,30.06,SE,135,3.0,3.0,90,0.00,CLR,,0.00,0.0,WeatherDisplay:10.37,2013-08-25 09:17:00,
2013-08-25 04:22:00,73.1,70.0,30.06,SSE,163,0.0,0.0,90,0.00,CLR,,0.00,0.0,WeatherDisplay:10.37,2013-08-25 09:22:00,
2013-08-25 04:27:00,73.0,69.9,30.06,SSE,161,2.3,2.3,90,0.00,CLR,,0.00,0.0,WeatherDisplay:10.37,2013-08-25 09:27:00,
2013-08-25 04:32:00,73.0,69.9,30.06,SE,129,2.3,2.3,90,0.00,CLR,,0.00,0.0,WeatherDisplay:10.37,2013-08-25 09:32:00,
2013-08-25 04:37:00,73.0,69.9,30.06,ESE,120,1.0,1.0,90,0.00,CLR,,0.00,0.0,WeatherDisplay:10.37,2013-08-25 09:37:00,
2013-08-25 04:42:00,72.9,69.8,30.06,South,175,2.3,2.3,90,0.00,CLR,,0.00,0.0,WeatherDisplay:10.37,2013-08-25 09:42:00,
2013-08-25 04:47:00,72.8,69.7,30.06,SSE,159,1.2,1.2,90,0.00,CLR,,0.00,0.0,WeatherDisplay:10.37,2013-08-25 09:47:00,
2013-08-25 04:52:00,72.7,69.6,30.06,SE,134,0.0,0.0,90,0.00,CLR,,0.00,0.0,WeatherDisplay:10.37,2013-08-25 09:52:00,
2013-08-25 04:57:00,72.6,69.8,30.06,SE,134,1.2,0.0,91,0.00,CLR,,0.00,0.0,WeatherDisplay:10.37,2013-08-25 09:57:00,
2013-08-25 05:02:00,72.5,69.4,30.07,SE,134,0.0,0.0,90,0.00,CLR,,0.00,0.0,WeatherDisplay:10.37,2013-08-25 10:02:00,
2013-08-25 05:07:00,72.4,69.6,30.06,SE,134,1.2,0.0,91,0.00,CLR,,0.00,0.0,WeatherDisplay:10.37,2013-08-25 10:07:00,
2013-08-25 05:12:00,72.2,69.4,30.06,SE,134,0.0,0.0,91,0.00,CLR,,0.00,0.0,WeatherDisplay:10.37,2013-08-25 10:12:00,
2013-08-25 05:17:00,72.2,69.4,30.07,SE,134,1.2,1.2,91,0.00,CLR,,0.00,0.0,WeatherDisplay:10.37,2013-08-25 10:17:00,
2013-08-25 05:22:00,72.1,69.6,30.06,SE,134,2.3,2.3,92,0.00,CLR,,0.00,0.0,WeatherDisplay:10.37,2013-08-25 10:22:00,
2013-08-25 05:27:00,72.0,69.5,30.06,SE,135,0.0,0.0,92,0.00,CLR,,0.00,0.0,WeatherDisplay:10.37,2013-08-25 10:27:00,
2013-08-25 05:32:00,72.0,69.5,30.07,SE,135,1.2,1.2,92,0.00,CLR,,0.00,0.0,WeatherDisplay:10.37,2013-08-25 10:32:00,
2013-08-25 05:37:00,72.0,69.5,30.07,SE,137,1.2,0.0,92,0.00,CLR,,0.00,0.0,WeatherDisplay:10.37,2013-08-25 10:37:00,
2013-08-25 05:42:00,72.0,69.5,30.07,SE,134,1.2,0.0,92,0.00,CLR,,0.00,0.0,WeatherDisplay:10.37,2013-08-25 10:42:00,
2013-08-25 05:47:00,71.9,69.4,30.07,SE,134,1.0,0.0,92,0.00,CLR,,0.00,0.0,WeatherDisplay:10.37,2013-08-25 10:47:00,
2013-08-25 05:52:00,71.9,69.4,30.07,SSE,165,1.2,1.2,92,0.00,CLR,,0.00,0.0,WeatherDisplay:10.37,2013-08-25 10:52:00,
2013-08-25 05:57:00,71.9,69.4,30.07,SE,140,1.2,1.2,92,0.00,CLR,,0.00,0.0,WeatherDisplay:10.37,2013-08-25 10:57:00,
2013-08-25 06:02:00,71.9,69.4,30.07,SSE,149,2.3,2.3,92,0.00,CLR,,0.00,0.0,WeatherDisplay:10.37,2013-08-25 11:02:00,
2013-08-25 06:07:00,71.9,69.4,30.07,SE,130,3.5,3.5,92,0.00,CLR,,0.00,0.0,WeatherDisplay:10.37,2013-08-25 11:07:00,
2013-08-25 06:12:00,71.8,69.3,30.07,SE,142,3.5,3.5,92,0.00,CLR,,0.00,0.0,WeatherDisplay:10.37,2013-08-25 11:12:00,
2013-08-25 06:17:00,71.8,69.3,30.07,SE,139,2.3,2.3,92,0.00,CLR,,0.00,0.0,WeatherDisplay:10.37,2013-08-25 11:17:00,
2013-08-25 06:22:00,71.8,69.3,30.07,SE,131,2.3,2.3,92,0.00,CLR,,0.00,0.0,WeatherDisplay:10.37,2013-08-25 11:22:00,
2013-08-25 06:27:00,71.8,69.3,30.07,SE,132,0.0,0.0,92,0.00,CLR,,0.00,0.0,WeatherDisplay:10.37,2013-08-25 11:27:00,
2013-08-25 06:32:00,71.8,69.3,30.07,SE,140,0.0,0.0,92,0.00,CLR,,0.00,0.0,WeatherDisplay:10.37,2013-08-25 11:32:00,
2013-08-25 06:37:00,71.8,69.3,30.07,SE,144,1.2,1.2,92,0.00,CLR,,0.00,0.0,WeatherDisplay:10.37,2013-08-25 11:37:00,
2013-08-25 06:42:00,71.7,69.3,30.08,SE,144,0.0,0.0,92,0.00,CLR,,0.00,0.0,WeatherDisplay:10.37,2013-08-25 11:42:00,
2013-08-25 06:47:00,71.7,69.3,30.08,SE,144,0.0,0.0,92,0.00,CLR,,0.00,0.0,WeatherDisplay:10.37,2013-08-25 11:47:00,
2013-08-25 06:52:00,71.7,69.3,30.08,SE,145,0.0,0.0,92,0.00,CLR,,0.00,0.0,WeatherDisplay:10.37,2013-08-25 11:52:00,
2013-08-25 06:57:00,71.7,69.3,30.08,SE,144,0.0,0.0,92,0.00,CLR,,0.00,0.0,WeatherDisplay:10.37,2013-08-25 11:57:00,
2013-08-25 07:02:00,71.6,69.2,30.08,SE,144,0.0,0.1,92,0.00,CLR,,0.00,7.0,WeatherDisplay:10.37,2013-08-25 12:02:00,
2013-08-25 07:07:00,71.5,69.1,30.08,SSE,159,2.3,2.3,92,0.00,CLR,,0.00,9.0,WeatherDisplay:10.37,2013-08-25 12:07:00,
2013-08-25 07:12:00,71.5,69.4,30.09,SSE,159,2.3,2.3,93,0.00,FEW,,0.00,12.0,WeatherDisplay:10.37,2013-08-25 12:12:00,
2013-08-25 07:17:00,71.5,69.4,30.09,SSE,159,0.0,0.0,93,0.00,FEW,,0.00,16.0,WeatherDisplay:10.37,2013-08-25 12:17:00,
2013-08-25 07:22:00,71.4,69.3,30.09,South,173,1.0,0.0,93,0.00,FEW,,0.00,18.0,WeatherDisplay:10.37,2013-08-25 12:22:00,
2013-08-25 07:27:00,71.5,69.4,30.09,SSE,155,0.0,0.1,93,0.00,FEW,,0.00,19.0,WeatherDisplay:10.37,2013-08-25 12:27:00,
2013-08-25 07:32:00,71.5,69.4,30.09,SE,124,1.2,1.2,93,0.00,FEW,,0.00,23.0,WeatherDisplay:10.37,2013-08-25 12:32:00,
2013-08-25 07:37:00,71.6,69.5,30.09,SE,134,2.3,2.3,93,0.00,FEW,,0.00,25.0,WeatherDisplay:10.37,2013-08-25 12:37:00,
2013-08-25 07:42:00,71.7,69.6,30.10,South,183,0.0,0.0,93,0.00,FEW,,0.00,28.0,WeatherDisplay:10.37,2013-08-25 12:42:00,
2013-08-25 07:47:00,71.8,69.7,30.10,SE,144,0.0,0.0,93,0.00,FEW,,0.00,30.0,WeatherDisplay:10.37,2013-08-25 12:47:00,
2013-08-25 07:52:00,72.0,69.9,30.10,SE,137,1.2,1.2,93,0.00,FEW,,0.00,32.0,WeatherDisplay:10.37,2013-08-25 12:52:00,
2013-08-25 07:57:00,72.2,70.1,30.10,SE,140,0.0,0.1,93,0.00,FEW,,0.00,33.0,WeatherDisplay:10.37,2013-08-25 12:57:00,
2013-08-25 08:02:00,72.4,69.9,30.10,SE,140,1.2,0.0,92,0.00,FEW,,0.00,37.0,WeatherDisplay:10.37,2013-08-25 13:02:00,
2013-08-25 08:07:00,72.6,70.1,30.10,SE,139,2.3,2.3,92,0.00,FEW,,0.00,39.0,WeatherDisplay:10.37,2013-08-25 13:07:00,
2013-08-25 08:12:00,72.9,70.4,30.10,SE,134,3.5,3.5,92,0.00,FEW,,0.00,40.0,WeatherDisplay:10.37,2013-08-25 13:12:00,
2013-08-25 08:17:00,73.1,70.3,30.10,SE,141,2.3,2.3,91,0.00,FEW,,0.00,42.0,WeatherDisplay:10.37,2013-08-25 13:17:00,
2013-08-25 08:22:00,73.4,70.6,30.10,SSE,157,2.3,2.3,91,0.00,FEW,,0.00,46.0,WeatherDisplay:10.37,2013-08-25 13:22:00,
2013-08-25 08:27:00,73.6,70.8,30.10,SSE,161,3.5,3.5,91,0.00,FEW,,0.00,47.0,WeatherDisplay:10.37,2013-08-25 13:27:00,
2013-08-25 08:32:00,73.9,70.8,30.10,SE,129,3.5,3.5,90,0.00,FEW,,0.00,53.0,WeatherDisplay:10.37,2013-08-25 13:32:00,
2013-08-25 08:37:00,74.2,70.7,30.10,SSE,158,4.6,4.6,89,0.00,FEW,,0.00,53.0,WeatherDisplay:10.37,2013-08-25 13:37:00,
2013-08-25 08:42:00,74.5,71.0,30.10,SE,136,1.2,1.2,89,0.00,FEW,,0.00,54.0,WeatherDisplay:10.37,2013-08-25 13:42:00,
2013-08-25 08:47:00,74.8,71.0,30.10,SE,144,3.5,3.5,88,0.00,FEW,,0.00,58.0,WeatherDisplay:10.37,2013-08-25 13:47:00,
2013-08-25 08:52:00,75.1,71.3,30.10,SE,139,4.6,4.6,88,0.00,FEW,,0.00,142.0,WeatherDisplay:10.37,2013-08-25 13:52:00,
2013-08-25 08:57:00,75.3,71.2,30.09,South,178,3.5,3.5,87,0.00,FEW,,0.00,70.0,WeatherDisplay:10.37,2013-08-25 13:57:00,
2013-08-25 09:02:00,75.6,71.8,30.10,SE,146,2.3,2.3,88,0.00,FEW,,0.00,65.0,WeatherDisplay:10.37,2013-08-25 14:02:00,
2013-08-25 09:07:00,75.9,71.8,30.10,SE,142,2.3,2.3,87,0.00,FEW,,0.00,67.0,WeatherDisplay:10.37,2013-08-25 14:07:00,
2013-08-25 09:12:00,76.2,71.7,30.10,SE,138,6.0,6.0,86,0.00,FEW,,0.00,69.0,WeatherDisplay:10.37,2013-08-25 14:12:00,
2013-08-25 09:17:00,76.5,72.0,30.10,SSE,154,3.5,3.5,86,0.00,FEW,,0.00,69.0,WeatherDisplay:10.37,2013-08-25 14:17:00,
2013-08-25 09:22:00,76.8,71.9,30.10,SSE,147,6.9,6.9,85,0.00,FEW,,0.00,72.0,WeatherDisplay:10.37,2013-08-25 14:22:00,
2013-08-25 09:27:00,77.2,72.0,30.10,SE,144,9.2,9.2,84,0.00,FEW,,0.00,174.0,WeatherDisplay:10.37,2013-08-25 14:27:00,
2013-08-25 09:32:00,77.5,71.9,30.10,SE,128,6.9,6.9,83,0.00,FEW,,0.00,359.0,WeatherDisplay:10.37,2013-08-25 14:32:00,
2013-08-25 09:37:00,77.9,72.3,30.10,SSE,154,5.8,5.8,83,0.00,FEW,,0.00,302.0,WeatherDisplay:10.37,2013-08-25 14:37:00,
2013-08-25 09:42:00,78.3,72.0,30.10,SE,128,9.2,9.2,81,0.00,FEW,,0.00,250.0,WeatherDisplay:10.37,2013-08-25 14:42:00,
2013-08-25 09:47:00,78.7,72.7,30.10,East,95,6.9,6.9,82,0.00,FEW,,0.00,84.0,WeatherDisplay:10.37,2013-08-25 14:47:00,
2013-08-25 09:52:00,79.1,73.1,30.10,SE,140,3.5,0.0,82,0.00,FEW,,0.00,74.0,WeatherDisplay:10.37,2013-08-25 14:52:00,
2013-08-25 09:57:00,79.5,73.2,30.10,SSE,161,3.5,3.5,81,0.00,FEW,,0.00,190.0,WeatherDisplay:10.37,2013-08-25 14:57:00,
2013-08-25 10:02:00,79.8,72.7,30.09,SE,146,3.5,0.0,79,0.00,FEW,,0.00,76.0,WeatherDisplay:10.37,2013-08-25 15:02:00,
2013-08-25 10:07:00,80.1,73.0,30.09,SE,128,3.5,3.5,79,0.00,FEW,,0.00,315.0,WeatherDisplay:10.37,2013-08-25 15:07:00,
2013-08-25 10:12:00,80.5,73.4,30.09,SSW,192,5.8,5.8,79,0.00,CLR,,0.00,181.0,WeatherDisplay:10.37,2013-08-25 15:12:00,
2013-08-25 10:17:00,80.8,72.9,30.10,SE,146,5.0,5.0,77,0.00,CLR,,0.00,171.0,WeatherDisplay:10.37,2013-08-25 15:17:00,
2013-08-25 10:22:00,81.2,72.5,30.10,South,170,11.5,11.5,75,0.00,CLR,,0.00,123.0,WeatherDisplay:10.37,2013-08-25 15:22:00,
2013-08-25 10:27:00,81.6,73.3,30.10,South,184,8.1,8.1,76,0.00,CLR,,0.00,134.0,WeatherDisplay:10.37,2013-08-25 15:27:00,
2013-08-25 10:32:00,81.9,72.8,30.10,SSE,159,6.9,6.9,74,0.00,CLR,,0.00,81.0,WeatherDisplay:10.37,2013-08-25 15:32:00,
2013-08-25 10:37:00,82.1,73.0,30.10,SSE,165,5.8,5.8,74,0.00,CLR,,0.00,84.0,WeatherDisplay:10.37,2013-08-25 15:37:00,
2013-08-25 10:42:00,82.4,72.9,30.10,SSE,167,4.6,4.6,73,0.00,CLR,,0.00,323.0,WeatherDisplay:10.37,2013-08-25 15:42:00,
2013-08-25 10:47:00,82.9,73.8,30.09,SSE,162,7.0,7.0,74,0.00,CLR,,0.00,107.0,WeatherDisplay:10.37,2013-08-25 15:47:00,
2013-08-25 10:52:00,83.2,73.2,30.09,South,169,5.0,5.0,72,0.00,CLR,,0.00,91.0,WeatherDisplay:10.37,2013-08-25 15:52:00,
2013-08-25 10:57:00,83.4,73.4,30.09,SE,146,6.0,6.0,72,0.00,CLR,,0.00,111.0,WeatherDisplay:10.37,2013-08-25 15:57:00,
2013-08-25 11:02:00,83.6,73.2,30.09,SE,142,8.1,8.1,71,0.00,CLR,,0.00,93.0,WeatherDisplay:10.37,2013-08-25 16:02:00,
2013-08-25 11:07:00,83.8,73.0,30.09,SE,146,6.9,6.9,70,0.00,CLR,,0.00,308.0,WeatherDisplay:10.37,2013-08-25 16:07:00,
2013-08-25 11:12:00,84.1,73.3,30.09,SSE,168,8.1,8.1,70,0.00,CLR,,0.00,381.0,WeatherDisplay:10.37,2013-08-25 16:12:00,
2013-08-25 11:17:00,84.5,74.1,30.09,South,182,6.9,6.9,71,0.00,CLR,,0.00,176.0,WeatherDisplay:10.37,2013-08-25 16:17:00,
2013-08-25 11:22:00,85.0,73.3,30.09,SW,217,9.0,9.0,68,0.00,CLR,,0.00,325.0,WeatherDisplay:10.37,2013-08-25 16:22:00,
2013-08-25 11:27:00,85.4,72.7,30.09,SE,128,6.9,6.9,66,0.00,CLR,,0.00,158.0,WeatherDisplay:10.37,2013-08-25 16:27:00,
2013-08-25 11:32:00,85.7,73.9,30.09,South,172,5.8,5.8,68,0.00,CLR,,0.00,128.0,WeatherDisplay:10.37,2013-08-25 16:32:00,
2013-08-25 11:37:00,86.0,72.9,30.09,SE,140,5.8,5.8,65,0.00,CLR,,0.00,125.0,WeatherDisplay:10.37,2013-08-25 16:37:00,
2013-08-25 11:42:00,86.1,72.5,30.09,South,177,4.6,4.6,64,0.00,CLR,,0.00,269.0,WeatherDisplay:10.37,2013-08-25 16:42:00,
2013-08-25 11:47:00,86.4,74.1,30.08,SSE,166,2.3,2.3,67,0.00,CLR,,0.00,401.0,WeatherDisplay:10.37,2013-08-25 16:47:00,
2013-08-25 11:52:00,86.8,73.6,30.08,South,180,4.0,4.0,65,0.00,CLR,,0.00,311.0,WeatherDisplay:10.37,2013-08-25 16:52:00,
2013-08-25 11:57:00,87.2,74.5,30.08,SE,136,3.5,3.5,66,0.00,CLR,,0.00,304.0,WeatherDisplay:10.37,2013-08-25 16:57:00,
2013-08-25 12:02:00,87.5,73.3,30.08,South,173,10.4,10.4,63,0.00,CLR,,0.00,749.0,WeatherDisplay:10.37,2013-08-25 17:02:00,
2013-08-25 12:07:00,87.8,73.6,30.08,SSW,205,7.0,7.0,63,0.00,CLR,,0.00,756.0,WeatherDisplay:10.37,2013-08-25 17:07:00,
2013-08-25 12:12:00,88.4,74.7,30.08,SW,234,4.6,4.6,64,0.00,CLR,,0.00,763.0,WeatherDisplay:10.37,2013-08-25 17:12:00,
2013-08-25 12:17:00,88.9,74.2,30.08,SW,221,8.0,8.0,62,0.00,CLR,,0.00,772.0,WeatherDisplay:10.37,2013-08-25 17:17:00,
2013-08-25 12:22:00,89.4,74.2,30.08,SE,125,9.2,9.2,61,0.00,CLR,,0.00,779.0,WeatherDisplay:10.37,2013-08-25 17:22:00,
2013-08-25 12:27:00,89.7,74.0,30.07,South,182,9.2,9.2,60,0.00,CLR,,0.00,786.0,WeatherDisplay:10.37,2013-08-25 17:27:00,
2013-08-25 12:32:00,89.9,74.2,30.07,SSE,167,5.8,5.8,60,0.00,CLR,,0.00,791.0,WeatherDisplay:10.37,2013-08-25 17:32:00,
2013-08-25 12:37:00,90.1,74.3,30.07,South,175,4.6,4.6,60,0.00,CLR,,0.00,798.0,WeatherDisplay:10.37,2013-08-25 17:37:00,
2013-08-25 12:42:00,90.4,74.1,30.07,SE,145,3.5,3.5,59,0.00,CLR,,0.00,802.0,WeatherDisplay:10.37,2013-08-25 17:42:00,
2013-08-25 12:47:00,90.6,74.3,30.07,SW,223,8.1,8.1,59,0.00,CLR,,0.00,807.0,WeatherDisplay:10.37,2013-08-25 17:47:00,
2013-08-25 12:52:00,90.7,73.4,30.07,South,188,8.1,8.1,57,0.00,CLR,,0.00,816.0,WeatherDisplay:10.37,2013-08-25 17:52:00,
2013-08-25 12:57:00,90.9,73.6,30.06,South,175,3.5,3.5,57,0.00,CLR,,0.00,819.0,WeatherDisplay:10.37,2013-08-25 17:57:00,
2013-08-25 13:02:00,91.0,73.7,30.06,SSE,151,5.0,5.0,57,0.00,CLR,,0.00,823.0,WeatherDisplay:10.37,2013-08-25 18:02:00,
2013-08-25 13:07:00,91.0,73.7,30.06,ESE,109,3.5,3.5,57,0.00,CLR,,0.00,826.0,WeatherDisplay:10.37,2013-08-25 18:07:00,
2013-08-25 13:12:00,91.0,74.2,30.06,South,184,4.6,4.6,58,0.00,CLR,,0.00,828.0,WeatherDisplay:10.37,2013-08-25 18:12:00,
2013-08-25 13:17:00,91.1,73.2,30.05,South,189,11.5,11.5,56,0.00,CLR,,0.00,828.0,WeatherDisplay:10.37,2013-08-25 18:17:00,
2013-08-25 13:22:00,91.4,73.0,30.06,South,176,6.9,6.9,55,0.00,CLR,,0.00,837.0,WeatherDisplay:10.37,2013-08-25 18:22:00,
2013-08-25 13:27:00,91.5,73.1,30.05,SE,136,11.5,11.5,55,0.00,CLR,,0.00,837.0,WeatherDisplay:10.37,2013-08-25 18:27:00,
2013-08-25 13:32:00,91.7,73.8,30.05,WSW,244,10.4,10.4,56,0.00,CLR,,0.00,824.0,WeatherDisplay:10.37,2013-08-25 18:32:00,
2013-08-25 13:37:00,91.8,72.2,30.05,SSW,194,8.1,8.1,53,0.00,CLR,,0.00,833.0,WeatherDisplay:10.37,2013-08-25 18:37:00,
2013-08-25 13:42:00,92.0,73.0,30.05,South,169,10.4,10.4,54,0.00,CLR,,0.00,830.0,WeatherDisplay:10.37,2013-08-25 18:42:00,
2013-08-25 13:47:00,92.0,73.5,30.05,SSE,160,4.6,4.6,55,0.00,CLR,,0.00,838.0,WeatherDisplay:10.37,2013-08-25 18:47:00,
2013-08-25 13:52:00,92.0,72.4,30.05,SSE,166,8.1,8.1,53,0.00,CLR,,0.00,838.0,WeatherDisplay:10.37,2013-08-25 18:52:00,
2013-08-25 13:57:00,92.3,73.2,30.05,SSW,213,11.5,11.5,54,0.00,CLR,,0.00,842.0,WeatherDisplay:10.37,2013-08-25 18:57:00,
2013-08-25 14:02:00,92.4,71.6,30.04,South,178,9.2,9.2,51,0.00,CLR,,0.00,835.0,WeatherDisplay:10.37,2013-08-25 19:02:00,
2013-08-25 14:07:00,92.6,71.8,30.04,SSW,213,8.1,8.1,51,0.00,CLR,,0.00,826.0,WeatherDisplay:10.37,2013-08-25 19:07:00,
2013-08-25 14:12:00,92.6,73.0,30.04,South,185,5.8,5.8,53,0.00,CLR,,0.00,819.0,WeatherDisplay:10.37,2013-08-25 19:12:00,
2013-08-25 14:17:00,92.5,73.4,30.04,South,184,8.1,8.1,54,0.00,CLR,,0.00,823.0,WeatherDisplay:10.37,2013-08-25 19:17:00,
2013-08-25 14:22:00,92.7,74.7,30.04,SE,133,3.5,3.5,56,0.00,CLR,,0.00,824.0,WeatherDisplay:10.37,2013-08-25 19:22:00,
2013-08-25 14:27:00,92.9,73.8,30.04,SSE,151,4.6,4.6,54,0.00,CLR,,0.00,816.0,WeatherDisplay:10.37,2013-08-25 19:27:00,
2013-08-25 14:32:00,93.0,73.3,30.04,South,190,9.2,9.2,53,0.00,CLR,,0.00,819.0,WeatherDisplay:10.37,2013-08-25 19:32:00,
2013-08-25 14:37:00,93.1,72.9,30.04,SE,144,6.9,6.9,52,0.00,CLR,,0.00,812.0,WeatherDisplay:10.37,2013-08-25 19:37:00,
2013-08-25 14:42:00,93.3,72.5,30.04,ESE,117,6.9,6.9,51,0.00,CLR,,0.00,812.0,WeatherDisplay:10.37,2013-08-25 19:42:00,
2013-08-25 14:47:00,93.5,73.2,30.04,South,171,4.6,4.6,52,0.00,CLR,,0.00,807.0,WeatherDisplay:10.37,2013-08-25 19:47:00,
2013-08-25 14:52:00,93.4,74.3,30.04,SSE,152,9.2,9.2,54,0.00,CLR,,0.00,819.0,WeatherDisplay:10.37,2013-08-25 19:52:00,
2013-08-25 14:57:00,93.3,73.6,30.04,SE,146,4.6,4.6,53,0.00,CLR,,0.00,812.0,WeatherDisplay:10.37,2013-08-25 19:57:00,
2013-08-25 15:02:00,93.1,72.3,30.04,SSE,154,4.6,4.6,51,0.00,FEW,,0.00,793.0,WeatherDisplay:10.37,2013-08-25 20:02:00,
2013-08-25 15:07:00,93.0,72.2,30.04,South,191,6.9,6.9,51,0.00,FEW,,0.00,786.0,WeatherDisplay:10.37,2013-08-25 20:07:00,
2013-08-25 15:12:00,93.0,72.8,30.03,SSE,155,2.3,2.3,52,0.00,FEW,,0.00,779.0,WeatherDisplay:10.37,2013-08-25 20:12:00,
2013-08-25 15:17:00,93.1,73.4,30.03,South,182,2.3,2.3,53,0.00,FEW,,0.00,758.0,WeatherDisplay:10.37,2013-08-25 20:17:00,
2013-08-25 15:22:00,93.4,72.0,30.03,SSW,201,6.9,6.9,50,0.00,FEW,,0.00,761.0,WeatherDisplay:10.37,2013-08-25 20:22:00,
2013-08-25 15:27:00,93.6,72.2,30.03,SE,142,6.9,6.9,50,0.00,FEW,,0.00,765.0,WeatherDisplay:10.37,2013-08-25 20:27:00,
2013-08-25 15:32:00,93.6,72.7,30.03,SSE,155,4.6,4.6,51,0.00,FEW,,0.00,761.0,WeatherDisplay:10.37,2013-08-25 20:32:00,
2013-08-25 15:37:00,93.6,71.6,30.03,South,177,10.4,10.4,49,0.00,FEW,,0.00,759.0,WeatherDisplay:10.37,2013-08-25 20:37:00,
2013-08-25 15:42:00,93.6,73.3,30.02,SE,139,3.5,3.5,52,0.00,FEW,,0.00,731.0,WeatherDisplay:10.37,2013-08-25 20:42:00,
2013-08-25 15:47:00,93.5,71.5,30.02,South,184,4.6,4.6,49,0.00,FEW,,0.00,740.0,WeatherDisplay:10.37,2013-08-25 20:47:00,
2013-08-25 15:52:00,93.8,72.3,30.02,South,175,5.8,5.8,50,0.00,FEW,,0.00,708.0,WeatherDisplay:10.37,2013-08-25 20:52:00,
2013-08-25 15:57:00,93.7,71.7,30.03,SSE,153,7.0,7.0,49,0.00,FEW,,0.00,715.0,WeatherDisplay:10.37,2013-08-25 20:57:00,
2013-08-25 16:02:00,93.7,70.4,30.02,ESE,119,6.9,6.9,47,0.00,FEW,,0.00,684.0,WeatherDisplay:10.37,2013-08-25 21:02:00,
2013-08-25 16:07:00,93.7,71.7,30.02,SSE,168,3.5,3.5,49,0.00,FEW,,0.00,682.0,WeatherDisplay:10.37,2013-08-25 21:07:00,
2013-08-25 16:12:00,93.6,71.6,30.02,SE,127,3.5,3.5,49,0.00,FEW,,0.00,708.0,WeatherDisplay:10.37,2013-08-25 21:12:00,
2013-08-25 16:17:00,93.2,71.2,30.02,SE,133,2.3,2.3,49,0.00,FEW,,0.00,151.0,WeatherDisplay:10.37,2013-08-25 21:17:00,
2013-08-25 16:22:00,93.1,71.7,30.02,SSW,198,5.8,5.8,50,0.00,FEW,,0.00,654.0,WeatherDisplay:10.37,2013-08-25 21:22:00,
2013-08-25 16:27:00,93.2,71.2,30.02,SE,124,3.5,3.5,49,0.00,FEW,,0.00,647.0,WeatherDisplay:10.37,2013-08-25 21:27:00,
2013-08-25 16:32:00,93.2,71.8,30.01,SSW,207,4.6,4.6,50,0.00,FEW,,0.00,543.0,WeatherDisplay:10.37,2013-08-25 21:32:00,
2013-08-25 16:37:00,93.2,71.8,30.02,SE,144,5.8,5.8,50,0.00,FEW,,0.00,619.0,WeatherDisplay:10.37,2013-08-25 21:37:00,
2013-08-25 16:42:00,93.3,71.3,30.02,South,176,9.2,9.2,49,0.00,FEW,,0.00,603.0,WeatherDisplay:10.37,2013-08-25 21:42:00,
2013-08-25 16:47:00,93.5,71.5,30.02,ESE,113,4.6,4.6,49,0.00,FEW,,0.00,596.0,WeatherDisplay:10.37,2013-08-25 21:47:00,
2013-08-25 16:52:00,93.3,70.7,30.01,SSE,155,6.9,6.9,48,0.00,FEW,,0.00,582.0,WeatherDisplay:10.37,2013-08-25 21:52:00,
2013-08-25 16:57:00,93.3,70.7,30.02,SE,146,4.6,4.6,48,0.00,FEW,,0.00,554.0,WeatherDisplay:10.37,2013-08-25 21:57:00,
2013-08-25 17:02:00,93.2,70.0,30.02,SSE,154,5.8,5.8,47,0.00,FEW,,0.00,524.0,WeatherDisplay:10.37,2013-08-25 22:02:00,
2013-08-25 17:07:00,93.2,70.6,30.02,East,94,7.0,7.0,48,0.00,FEW,,0.00,513.0,WeatherDisplay:10.37,2013-08-25 22:07:00,
2013-08-25 17:12:00,93.2,70.0,30.02,South,188,5.8,5.8,47,0.00,FEW,,0.00,494.0,WeatherDisplay:10.37,2013-08-25 22:12:00,
2013-08-25 17:17:00,93.3,68.1,30.01,SSW,202,8.1,8.1,44,0.00,FEW,,0.00,485.0,WeatherDisplay:10.37,2013-08-25 22:17:00,
2013-08-25 17:22:00,93.5,69.6,30.02,South,184,5.8,5.8,46,0.00,FEW,,0.00,468.0,WeatherDisplay:10.37,2013-08-25 22:22:00,
2013-08-25 17:27:00,93.6,68.4,30.01,ESE,113,5.8,5.8,44,0.00,FEW,,0.00,455.0,WeatherDisplay:10.37,2013-08-25 22:27:00,
2013-08-25 17:32:00,93.4,68.9,30.01,SE,145,4.6,4.6,45,0.00,FEW,,0.00,445.0,WeatherDisplay:10.37,2013-08-25 22:32:00,
2013-08-25 17:37:00,93.3,69.4,30.01,SSE,153,8.0,8.0,46,0.00,FEW,,0.00,427.0,WeatherDisplay:10.37,2013-08-25 22:37:00,
2013-08-25 17:42:00,93.0,68.5,30.01,SSE,159,3.5,3.5,45,0.00,FEW,,0.00,415.0,WeatherDisplay:10.37,2013-08-25 22:42:00,
2013-08-25 17:47:00,92.8,68.3,30.01,SE,132,2.3,2.3,45,0.00,FEW,,0.00,404.0,WeatherDisplay:10.37,2013-08-25 22:47:00,
2013-08-25 17:52:00,92.7,70.7,30.01,East,95,2.3,2.3,49,0.00,FEW,,0.00,380.0,WeatherDisplay:10.37,2013-08-25 22:52:00,
2013-08-25 17:57:00,92.5,70.6,30.01,East,82,2.3,2.3,49,0.00,FEW,,0.00,360.0,WeatherDisplay:10.37,2013-08-25 22:57:00,
2013-08-25 18:02:00,92.4,71.6,30.01,SE,137,4.6,4.6,51,0.00,FEW,,0.00,339.0,WeatherDisplay:10.37,2013-08-25 23:02:00,
2013-08-25 18:07:00,92.1,71.4,30.01,ESE,123,3.5,3.5,51,0.00,FEW,,0.00,322.0,WeatherDisplay:10.37,2013-08-25 23:07:00,
2013-08-25 18:12:00,91.8,71.7,30.01,SSE,159,2.3,2.3,52,0.00,SCT,,0.00,311.0,WeatherDisplay:10.37,2013-08-25 23:12:00,
2013-08-25 18:17:00,91.4,71.9,30.01,ENE,63,1.2,1.2,53,0.00,SCT,,0.00,294.0,WeatherDisplay:10.37,2013-08-25 23:17:00,
2013-08-25 18:22:00,91.0,71.5,30.01,ESE,119,2.3,2.3,53,0.00,SCT,,0.00,278.0,WeatherDisplay:10.37,2013-08-25 23:22:00,
2013-08-25 18:27:00,90.6,71.7,30.01,ESE,120,3.5,3.5,54,0.00,SCT,,0.00,257.0,WeatherDisplay:10.37,2013-08-25 23:27:00,
2013-08-25 18:32:00,90.3,71.4,30.01,ESE,121,2.3,2.3,54,0.00,SCT,,0.00,88.0,WeatherDisplay:10.37,2013-08-25 23:32:00,
2013-08-25 18:37:00,89.9,71.0,30.01,ESE,110,4.6,4.6,54,0.00,SCT,,0.00,69.0,WeatherDisplay:10.37,2013-08-25 23:37:00,
2013-08-25 18:42:00,89.6,71.8,30.01,SSE,156,4.6,4.6,56,0.00,SCT,,0.00,63.0,WeatherDisplay:10.37,2013-08-25 23:42:00,
2013-08-25 18:47:00,89.3,72.1,30.01,ESE,105,5.8,5.8,57,0.00,SCT,,0.00,62.0,WeatherDisplay:10.37,2013-08-25 23:47:00,
2013-08-25 18:52:00,89.0,71.3,30.01,ESE,108,3.5,3.5,56,0.00,SCT,,0.00,58.0,WeatherDisplay:10.37,2013-08-25 23:52:00,
2013-08-25 18:57:00,88.7,71.5,30.01,ESE,108,4.6,4.6,57,0.00,SCT,,0.00,56.0,WeatherDisplay:10.37,2013-08-25 23:57:00,
2013-08-25 19:02:00,88.4,71.2,30.01,SSE,153,8.1,8.1,57,0.00,FEW,,0.00,53.0,WeatherDisplay:10.37,2013-08-26 00:02:00,
2013-08-25 19:07:00,88.1,70.9,30.01,SSE,157,3.5,3.5,57,0.00,FEW,,0.00,49.0,WeatherDisplay:10.37,2013-08-26 00:07:00,
2013-08-25 19:12:00,87.8,71.7,30.01,SSW,205,3.5,3.5,59,0.00,FEW,,0.00,47.0,WeatherDisplay:10.37,2013-08-26 00:12:00,
2013-08-25 19:17:00,87.6,72.0,30.01,ESE,111,2.3,2.3,60,0.00,FEW,,0.00,44.0,WeatherDisplay:10.37,2013-08-26 00:17:00,
2013-08-25 19:22:00,87.3,71.7,30.01,SSE,149,3.5,3.5,60,0.00,FEW,,0.00,28.0,WeatherDisplay:10.37,2013-08-26 00:22:00,
2013-08-25 19:27:00,87.1,71.5,30.01,SSE,148,3.5,3.5,60,0.00,FEW,,0.00,19.0,WeatherDisplay:10.37,2013-08-26 00:27:00,
2013-08-25 19:32:00,86.8,71.7,30.01,SSE,152,5.0,5.0,61,0.00,FEW,,0.00,18.0,WeatherDisplay:10.37,2013-08-26 00:32:00,
2013-08-25 19:37:00,86.5,71.5,30.01,ENE,65,5.8,5.8,61,0.00,FEW,,0.00,21.0,WeatherDisplay:10.37,2013-08-26 00:37:00,
2013-08-25 19:42:00,86.2,71.6,30.01,SSE,150,2.3,2.3,62,0.00,FEW,,0.00,19.0,WeatherDisplay:10.37,2013-08-26 00:42:00,
2013-08-25 19:47:00,85.9,71.4,30.01,ESE,111,3.5,3.5,62,0.00,FEW,,0.00,16.0,WeatherDisplay:10.37,2013-08-26 00:47:00,
2013-08-25 19:52:00,85.7,71.2,30.01,ESE,116,3.5,3.5,62,0.00,FEW,,0.00,9.0,WeatherDisplay:10.37,2013-08-26 00:52:00,
2013-08-25 19:57:00,85.4,71.4,30.02,SE,145,5.8,5.8,63,0.00,FEW,,0.00,7.0,WeatherDisplay:10.37,2013-08-26 00:57:00,
2013-08-25 20:02:00,85.2,71.2,30.02,ESE,106,1.2,1.2,63,0.00,FEW,,0.00,5.0,WeatherDisplay:10.37,2013-08-26 01:02:00,
2013-08-25 20:07:00,84.9,70.9,30.02,ESE,107,2.0,2.0,63,0.00,FEW,,0.00,0.0,WeatherDisplay:10.37,2013-08-26 01:07:00,
2013-08-25 20:12:00,84.7,71.2,30.02,SE,135,2.3,2.3,64,0.00,FEW,,0.00,0.0,WeatherDisplay:10.37,2013-08-26 01:12:00,
2013-08-25 20:17:00,84.4,70.9,30.02,ESE,109,4.6,4.6,64,0.00,FEW,,0.00,0.0,WeatherDisplay:10.37,2013-08-26 01:17:00,
2013-08-25 20:22:00,84.2,71.2,30.02,SSE,153,3.5,3.5,65,0.00,FEW,,0.00,0.0,WeatherDisplay:10.37,2013-08-26 01:22:00,
2013-08-25 20:27:00,84.0,71.0,30.02,ESE,114,6.9,6.9,65,0.00,FEW,,0.00,0.0,WeatherDisplay:10.37,2013-08-26 01:27:00,
2013-08-25 20:32:00,83.8,71.2,30.03,ESE,110,3.5,3.5,66,0.00,FEW,,0.00,0.0,WeatherDisplay:10.37,2013-08-26 01:32:00,
2013-08-25 20:37:00,83.5,70.9,30.03,SW,217,2.3,2.3,66,0.00,FEW,,0.00,0.0,WeatherDisplay:10.37,2013-08-26 01:37:00,
2013-08-25 20:42:00,83.4,71.3,30.03,SE,136,1.2,1.2,67,0.00,FEW,,0.00,0.0,WeatherDisplay:10.37,2013-08-26 01:42:00,
2013-08-25 20:47:00,83.2,71.1,30.03,SSE,166,1.2,1.2,67,0.00,FEW,,0.00,0.0,WeatherDisplay:10.37,2013-08-26 01:47:00,
2013-08-25 20:52:00,83.1,71.4,30.03,SE,140,3.5,3.5,68,0.00,FEW,,0.00,0.0,WeatherDisplay:10.37,2013-08-26 01:52:00,
2013-08-25 20:57:00,82.9,71.3,30.04,SE,146,2.3,2.3,68,0.00,FEW,,0.00,0.0,WeatherDisplay:10.37,2013-08-26 01:57:00,
2013-08-25 21:02:00,82.7,71.1,30.04,ESE,109,2.3,0.0,68,0.00,FEW,,0.00,0.0,WeatherDisplay:10.37,2013-08-26 02:02:00,
2013-08-25 21:07:00,82.5,71.3,30.04,East,95,2.3,2.3,69,0.00,FEW,,0.00,0.0,WeatherDisplay:10.37,2013-08-26 02:07:00,
2013-08-25 21:12:00,82.4,71.2,30.04,SE,144,2.3,2.3,69,0.00,FEW,,0.00,0.0,WeatherDisplay:10.37,2013-08-26 02:12:00,
2013-08-25 21:17:00,82.3,71.1,30.04,SSE,168,3.5,3.5,69,0.00,FEW,,0.00,0.0,WeatherDisplay:10.37,2013-08-26 02:17:00,
2013-08-25 21:22:00,82.1,71.3,30.05,South,173,2.3,2.3,70,0.00,FEW,,0.00,0.0,WeatherDisplay:10.37,2013-08-26 02:22:00,
2013-08-25 21:27:00,82.0,71.2,30.05,SW,214,4.6,4.6,70,0.00,FEW,,0.00,0.0,WeatherDisplay:10.37,2013-08-26 02:27:00,
2013-08-25 21:32:00,81.8,71.5,30.05,ESE,115,3.5,3.5,71,0.00,FEW,,0.00,0.0,WeatherDisplay:10.37,2013-08-26 02:32:00,
2013-08-25 21:37:00,81.6,71.3,30.05,ESE,115,0.0,0.1,71,0.00,FEW,,0.00,0.0,WeatherDisplay:10.37,2013-08-26 02:37:00,
2013-08-25 21:42:00,81.5,71.2,30.05,ESE,121,4.6,4.6,71,0.00,FEW,,0.00,0.0,WeatherDisplay:10.37,2013-08-26 02:42:00,
2013-08-25 21:47:00,81.3,71.4,30.05,ENE,71,3.5,3.5,72,0.00,FEW,,0.00,0.0,WeatherDisplay:10.37,2013-08-26 02:47:00,
2013-08-25 21:52:00,81.2,71.3,30.05,SE,138,3.5,3.5,72,0.00,FEW,,0.00,0.0,WeatherDisplay:10.37,2013-08-26 02:52:00,
2013-08-25 21:57:00,81.1,71.6,30.06,SE,126,2.3,2.3,73,0.00,FEW,,0.00,0.0,WeatherDisplay:10.37,2013-08-26 02:57:00,
2013-08-25 22:02:00,80.9,71.4,30.06,ESE,119,5.8,5.8,73,0.00,FEW,,0.00,0.0,WeatherDisplay:10.37,2013-08-26 03:02:00,
2013-08-25 22:07:00,80.8,71.3,30.06,SE,140,4.6,4.6,73,0.00,FEW,,0.00,0.0,WeatherDisplay:10.37,2013-08-26 03:07:00,
2013-08-25 22:12:00,80.7,71.2,30.06,SE,144,3.5,3.5,73,0.00,CLR,,0.00,0.0,WeatherDisplay:10.37,2013-08-26 03:12:00,
2013-08-25 22:17:00,80.6,71.5,30.06,South,180,2.3,2.3,74,0.00,CLR,,0.00,0.0,WeatherDisplay:10.37,2013-08-26 03:17:00,
2013-08-25 22:22:00,80.5,71.4,30.06,ESE,112,1.2,1.3,74,0.00,CLR,,0.00,0.0,WeatherDisplay:10.37,2013-08-26 03:22:00,
2013-08-25 22:27:00,80.4,71.3,30.06,ESE,119,6.9,6.9,74,0.00,CLR,,0.00,0.0,WeatherDisplay:10.37,2013-08-26 03:27:00,
2013-08-25 22:32:00,80.3,71.3,30.06,South,178,3.5,3.5,74,0.00,CLR,,0.00,0.0,WeatherDisplay:10.37,2013-08-26 03:32:00,
2013-08-25 22:37:00,80.2,71.6,30.06,ESE,115,1.2,1.2,75,0.00,CLR,,0.00,0.0,WeatherDisplay:10.37,2013-08-26 03:37:00,
2013-08-25 22:42:00,80.0,71.4,30.06,SE,125,2.3,2.3,75,0.00,CLR,,0.00,0.0,WeatherDisplay:10.37,2013-08-26 03:42:00,
2013-08-25 22:47:00,79.9,71.3,30.06,SE,146,2.0,2.0,75,0.00,CLR,,0.00,0.0,WeatherDisplay:10.37,2013-08-26 03:47:00,
2013-08-25 22:52:00,79.7,71.5,30.06,SE,140,3.5,3.5,76,0.00,CLR,,0.00,0.0,WeatherDisplay:10.37,2013-08-26 03:52:00,
2013-08-25 22:57:00,79.6,71.4,30.06,SSE,161,1.0,1.0,76,0.00,CLR,,0.00,0.0,WeatherDisplay:10.37,2013-08-26 03:57:00,
2013-08-25 23:01:00,79.5,71.3,30.06,SE,142,4.6,4.6,76,0.00,CLR,,0.00,0.0,WeatherDisplay:10.37,2013-08-26 04:01:00,
2013-08-25 23:06:00,79.3,71.5,30.07,East,91,1.2,0.0,77,0.00,CLR,,0.00,0.0,WeatherDisplay:10.37,2013-08-26 04:06:00,
2013-08-25 23:11:00,79.2,71.4,30.07,SSE,148,0.0,0.0,77,0.00,CLR,,0.00,0.0,WeatherDisplay:10.37,2013-08-26 04:11:00,
2013-08-25 23:16:00,79.0,71.6,30.07,SSE,153,2.3,2.3,78,0.00,CLR,,0.00,0.0,WeatherDisplay:10.37,2013-08-26 04:16:00,
2013-08-25 23:21:00,78.8,71.4,30.07,SSE,153,1.2,1.2,78,0.00,CLR,,0.00,0.0,WeatherDisplay:10.37,2013-08-26 04:21:00,
2013-08-25 23:26:00,78.6,71.2,30.07,SE,138,2.3,2.3,78,0.00,CLR,,0.00,0.0,WeatherDisplay:10.37,2013-08-26 04:26:00,
2013-08-25 23:31:00,78.5,71.4,30.07,SE,139,2.3,2.3,79,0.00,CLR,,0.00,0.0,WeatherDisplay:10.37,2013-08-26 04:31:00,
2013-08-25 23:36:00,78.3,71.2,30.07,ESE,123,0.0,0.2,79,0.00,CLR,,0.00,0.0,WeatherDisplay:10.37,2013-08-26 04:36:00,
2013-08-25 23:41:00,78.2,71.2,30.07,SSE,148,2.0,2.0,79,0.00,CLR,,0.00,0.0,WeatherDisplay:10.37,2013-08-26 04:41:00,
2013-08-25 23:46:00,78.0,71.3,30.07,ESE,121,2.3,2.3,80,0.00,CLR,,0.00,0.0,WeatherDisplay:10.37,2013-08-26 04:46:00,
2013-08-25 23:51:00,77.9,71.2,30.07,SE,134,1.2,1.2,80,0.00,CLR,,0.00,0.0,WeatherDisplay:10.37,2013-08-26 04:51:00,
2013-08-25 23:56:00,77.7,71.4,30.07,SE,136,2.3,2.3,81,0.00,CLR,,0.00,0.0,WeatherDisplay:10.37,2013-08-26 04:56:00,